Lapse_Rate
8.4 8.3 8.4 8.3 8.4 8.2 8.5 8.6 9.2 8.8 9.1 9.2 9.3 9.3 9.3 9.2 9.2 9.3 9.4 7.7 6.5 6.2 5.6 5.6 6.0 7.2 6.7 6.9 6.6 8.0 8.0 8.0 8.2 8.0 7.7 7.7 6.7 6.4 6.5 6.3 6.1 6.5 6.5 6.6 6.4 6.3 6.6
8.1 8.0 8.2 8.0 8.2 8.4 9.0 9.1 8.8 8.2 8.3 9.1 9.3 9.3 9.3 9.3 9.3 9.3 9.1 8.1 8.4 5.4 6.4 5.8 6.2 7.5 6.5 6.5 7.3 8.1 7.1 7.5 8.0 8.2 7.9 7.5 7.1 7.3 6.5 6.4 6.5 6.1 6.3 6.4 6.6 6.6 6.7
7.8 7.8 7.9 8.2 9.2 9.1 8.1 9.2 8.9 8.3 8.4 9.3 9.3 9.2 9.3 9.2 9.3 9.4 9.3 7.1 7.3 5.8 6.2 6.1 5.8 7.6 7.1 5.8 7.6 7.6 8.1 7.4 8.3 8.1 7.5 7.8 8.0 7.5 6.7 6.5 6.2 6.2 6.5 6.5 6.4 6.5 6.5
7.8 8.0 8.1 8.3 8.6 9.1 8.9 8.3 8.0 8.3 8.7 9.3 9.4 9.3 9.1 8.6 9.1 8.9 8.2 6.5 5.8 6.2 6.3 6.1 6.7 7.5 6.8 8.1 8.2 8.6 8.5 8.4 8.5 8.6 8.3 8.1 8.0 7.7 7.1 6.4 6.3 6.5 6.5 6.5 6.5 6.5 6.4
7.8 7.3 6.9 6.9 7.4 7.7 7.6 7.9 8.2 8.6 8.5 8.6 8.5 8.4 8.6 9.0 8.5 8.1 7.2 6.5 6.5 7.1 5.9 6.4 6.3 6.5 6.9 8.6 7.7 8.4 8.1 8.0 8.0 8.8 8.6 9.1 8.2 7.2 7.0 6.5 6.5 6.5 6.5 6.5 6.5 6.5 6.5
7.5 7.4 7.5 7.4 6.9 6.8 6.7 6.4 7.7 9.3 8.6 8.2 8.3 8.5 8.3 8.9 8.2 7.8 7.8 7.5 6.0 6.5 6.8 7.6 7.8 7.0 7.7 7.5 7.7 8.3 8.1 8.6 7.6 7.3 7.1 7.3 6.8 6.5 6.5 6.5 6.5 6.5 6.5 6.5 6.5 6.5 6.5
7.2 7.1 6.5 6.1 5.9 4.6 4.6 7.1 7.4 8.3 8.4 8.3 8.1 8.6 7.9 8.9 8.4 7.8 6.8 5.5 6.0 6.4 6.8 7.0 7.1 7.2 7.1 7.5 7.9 7.6 7.8 7.5 7.7 7.2 6.5 6.3 6.5 6.5 6.5 6.5 6.5 6.5 6.5 6.5 6.5 6.5 6.5
5.9 6.2 7.0 6.6 6.0 7.3 6.9 7.0 7.3 7.7 8.5 8.3 8.2 8.2 8.0 8.1 8.1 7.8 6.8 7.1 7.0 6.3 6.8 6.8 7.2 7.6 7.4 7.5 7.2 7.7 7.8 6.7 6.8 6.5 6.5 6.5 6.5 6.5 6.5 6.5 6.5 6.5 6.5 6.5 6.5 6.5 6.5
7.3 6.5 7.3 7.3 7.4 6.5 6.9 7.7 7.8 8.1 8.2 8.1 7.9 7.9 7.9 7.9 7.9 6.6 6.8 7.1 7.0 6.8 6.7 7.1 7.1 7.7 7.4 7.4 7.0 6.9 7.4 7.4 6.5 6.5 6.5 6.5 6.5 6.5 6.5 6.5 6.5 6.5 6.5 6.5 6.5 6.5 6.5
7.3 7.2 8.9 8.7 8.5 8.0 8.2 8.0 7.9 8.0 8.1 8.2 8.1 7.8 7.6 8.0 6.9 5.7 6.8 7.4 7.0 7.1 6.5 6.5 6.6 7.3 7.6 7.1 6.6 7.4 7.4 7.4 6.6 6.5 6.5 6.5 6.5 6.5 6.5 6.5 6.5 6.5 6.5 6.5 6.5 6.5 6.5
6.4 8.5 8.3 8.7 8.2 8.4 8.7 9.1 8.5 8.4 8.1 7.8 7.6 7.8 7.8 7.6 5.8 6.8 7.4 6.9 6.7 6.4 6.5 6.5 6.7 8.5 7.2 6.6 7.0 7.0 7.4 7.2 6.5 6.5 6.5 6.5 6.5 6.5 6.5 6.5 6.5 6.5 6.5 6.5 6.5 6.5 6.5
7.6 9.0 9.2 9.2 9.2 9.2 8.6 8.3 8.2 8.1 8.0 7.9 7.8 7.6 7.2 6.2 6.0 7.4 7.2 6.6 6.3 6.5 6.5 6.5 6.7 6.5 6.5 6.8 6.8 7.2 7.0 6.7 6.8 6.5 6.5 6.5 6.6 6.5 6.5 6.5 6.5 6.5 6.5 6.5 6.5 6.5 6.5
8.0 9.3 9.3 9.3 9.2 9.0 8.8 8.5 8.8 8.7 7.9 7.7 7.8 7.2 6.6 7.1 6.2 7.0 5.8 6.3 6.5 6.5 6.5 6.5 6.5 6.5 6.5 6.5 6.5 6.5 6.5 6.5 6.5 6.5 6.5 6.5 6.5 6.5 6.6 6.5 6.5 6.5 6.5 6.5 6.5 6.5 6.5
7.9 8.4 9.3 9.3 9.2 9.1 8.9 9.0 8.4 8.0 7.9 7.1 6.7 7.2 6.0 6.7 6.3 6.1 4.6 6.5 6.5 6.5 6.5 6.5 6.5 6.5 6.5 6.5 6.5 6.5 6.5 6.5 6.5 6.5 6.5 6.5 6.5 6.5 6.5 6.5 6.5 6.5 6.5 6.5 6.5 6.5 6.5
7.3 7.1 9.2 9.1 8.8 9.0 8.3 8.2 8.3 7.8 8.4 7.0 7.0 5.3 5.2 4.9 6.8 5.3 5.2 6.5 6.5 6.5 6.5 6.5 6.5 6.5 6.5 6.5 6.5 6.5 6.5 6.5 6.5 6.5 6.5 6.5 6.5 6.5 6.5 6.5 6.5 6.5 6.5 6.5 6.5 6.5 6.5
6.9 6.5 9.0 9.1 9.0 8.9 8.7 7.9 8.3 7.7 8.4 7.9 5.0 6.1 6.5 6.2 6.7 5.1 6.1 6.5 6.5 6.5 6.5 6.5 6.5 6.5 6.5 6.5 6.5 6.5 6.5 6.5 6.5 6.5 6.5 6.5 6.5 6.5 6.5 6.5 6.5 6.5 6.5 6.5 6.5 6.5 6.5
6.5 6.0 8.0 8.8 7.5 7.2 8.0 8.1 7.5 7.0 7.2 7.8 4.7 5.0 6.3 6.5 4.8 4.3 6.5 6.5 6.5 6.9 6.5 6.5 6.5 6.5 6.5 6.5 6.5 6.5 6.5 6.5 6.5 6.5 6.5 6.5 6.5 6.5 6.5 6.5 6.5 6.5 6.5 6.5 6.5 6.5 6.5
6.1 5.7 6.3 8.3 6.9 6.7 6.8 7.3 7.0 6.5 6.2 4.7 4.1 6.4 5.6 5.5 5.6 6.5 6.5 6.5 6.8 6.4 6.3 6.5 6.5 6.5 6.5 6.5 6.5 6.5 6.5 6.5 6.1 6.5 6.5 6.5 6.5 6.5 6.5 6.5 6.5 6.5 6.5 6.5 6.5 6.5 6.5
5.3 5.8 5.7 6.9 6.5 6.5 6.0 6.3 6.8 6.4 6.9 5.4 6.7 5.8 6.1 5.3 6.5 6.5 6.5 6.5 6.6 6.5 6.5 6.5 6.5 6.5 6.5 6.5 6.5 6.5 6.5 6.5 6.1 6.5 6.5 6.5 6.5 6.5 6.5 6.5 6.5 6.5 6.5 6.5 6.5 6.5 6.5
4.7 5.2 5.8 6.4 6.2 6.4 6.2 5.3 5.4 5.8 6.2 3.9 5.6 6.5 4.2 5.1 6.0 6.5 6.5 6.5 6.5 6.2 6.5 6.5 6.5 6.4 6.5 6.5 6.5 6.5 6.5 6.5 6.1 6.4 6.5 6.3 6.5 6.5 6.5 6.5 6.5 6.5 6.5 6.5 6.5 6.5 6.5
4.3 4.8 5.5 5.7 6.1 6.4 6.6 6.1 4.9 5.0 5.5 3.9 4.6 6.4 6.7 6.5 6.4 6.5 6.5 6.5 6.5 6.5 6.4 6.2 6.5 6.5 6.5 6.5 6.5 6.5 6.5 6.5 6.4 6.1 6.4 6.5 6.5 6.5 6.5 6.5 6.5 6.5 6.5 6.5 6.5 6.5 6.5
4.7 4.2 4.8 5.6 5.9 5.9 5.9 6.6 5.9 4.9 5.2 5.3 5.7 6.3 5.2 6.1 5.9 6.5 6.5 6.5 6.5 6.5 6.5 6.5 6.5 6.5 6.5 6.5 6.5 6.5 6.5 6.5 6.5 6.5 6.5 6.5 6.5 6.5 6.5 6.5 6.5 6.5 6.5 6.5 6.5 6.5 6.5
4.4 4.1 4.5 5.0 5.8 5.9 5.9 5.9 6.7 5.8 4.8 5.0 6.2 5.6 6.0 6.2 6.3 6.5 6.5 6.5 6.5 6.5 6.4 6.2 6.4 6.5 6.5 6.5 5.8 5.2 5.0 5.3 6.2 6.5 6.5 6.5 6.5 6.5 6.5 6.5 6.5 6.5 6.5 6.5 6.5 6.5 6.5
4.8 3.9 4.2 4.6 5.4 5.5 5.6 6.1 6.2 6.5 5.6 5.4 4.4 5.4 5.5 6.5 6.5 6.5 6.5 6.5 6.5 6.4 6.5 6.3 5.6 6.5 6.0 4.5 4.0 5.8 5.0 5.4 5.5 6.4 6.0 6.5 6.5 6.5 6.5 6.5 6.5 6.5 6.5 6.5 6.5 6.5 6.5
4.9 4.1 4.0 4.3 4.9 5.5 5.4 5.5 5.7 6.4 6.1 5.5 4.8 5.0 5.9 6.5 6.4 6.5 6.4 6.5 5.7 6.3 6.4 6.4 5.9 5.9 4.2 5.1 6.5 6.5 6.5 6.5 6.5 6.5 6.5 6.5 6.5 6.5 6.5 6.5 6.5 6.5 6.5 6.5 6.5 6.5 6.5
4.8 3.9 4.3 4.3 4.7 5.0 5.4 5.3 5.4 5.4 5.6 5.3 4.4 3.7 4.4 6.0 6.2 6.3 6.2 6.6 6.5 6.5 6.5 6.3 5.7 4.5 4.9 6.5 6.5 6.5 6.5 6.5 6.5 6.5 6.5 6.5 6.5 6.5 6.5 6.5 6.5 6.5 6.5 6.3 6.5 6.5 6.4
4.5 4.1 4.2 4.3 4.8 5.0 5.1 5.5 5.1 5.5 5.4 3.9 2.6 3.5 3.5 5.0 3.9 5.2 6.2 6.1 5.6 6.0 6.5 5.7 5.5 4.7 4.9 6.5 6.5 6.5 6.5 6.5 6.5 6.5 6.5 6.5 6.5 6.5 6.5 6.5 6.5 6.5 6.4 6.3 6.5 6.5 6.3
4.1 3.9 4.1 4.6 4.8 5.1 5.5 5.6 5.5 5.7 6.0 4.0 3.1 3.8 3.6 3.4 3.9 5.1 5.3 4.8 4.6 4.6 6.5 5.0 5.9 5.6 6.1 6.5 6.5 6.5 6.5 6.5 6.5 6.5 6.5 6.5 6.5 6.5 6.5 6.5 6.5 5.8 6.4 6.5 6.1 5.8 5.6
4.2 3.9 4.2 4.5 5.1 5.1 5.6 6.0 6.4 6.1 5.8 5.2 3.7 4.4 3.8 3.3 4.0 4.4 5.1 4.3 3.9 4.0 3.9 2.7 5.4 5.7 5.4 6.5 6.5 6.5 6.5 6.5 6.5 6.5 6.5 6.5 6.5 6.5 6.5 6.5 5.9 5.4 5.7 5.6 4.2 4.6 5.9
Wind_Speed
27 25 25 25 23 23 21 21 20 19 19 18 19 21 21 21 22 22 24 26 23 24 24 11 17 16 7 4 5 13 16 15 11 7 8 4 5 5 5 4 6 12 12 10 9 8 11
27 26 26 25 25 23 22 22 19 18 18 19 20 19 22 22 23 24 24 27 26 29 20 12 19 17 2 5 2 18 13 7 8 4 4 3 4 5 2 3 3 5 10 13 11 15 14
28 28 28 27 25 26 23 21 20 16 17 18 19 20 20 23 22 24 27 28 31 30 14 18 16 9 2 5 14 17 9 6 5 6 5 6 3 2 3 6 5 6 11 14 15 16 13
33 33 32 31 29 26 24 23 19 16 17 17 18 20 20 20 21 23 27 30 38 9 16 21 18 4 3 7 9 9 7 4 5 3 2 3 5 1 4 4 6 7 4 5 3 3 7
40 40 41 39 35 32 22 20 15 14 16 18 17 19 20 20 19 22 26 29 25 15 23 21 7 3 4 7 7 8 7 8 9 4 1 2 2 3 3 5 5 5 5 6 10 3 7
42 43 42 40 39 43 24 13 20 18 16 16 15 18 20 20 18 21 23 20 8 14 13 9 3 6 3 6 5 5 5 4 5 6 3 2 2 2 5 6 6 5 5 6 10 5 10
43 44 40 38 33 28 23 20 22 24 21 18 18 18 19 19 18 20 13 2 4 3 3 3 9 1 10 7 7 5 5 5 5 6 6 5 3 9 13 13 14 7 12 15 18 18 18
34 28 31 27 31 25 16 12 15 18 18 18 18 19 19 18 18 18 4 4 4 5 3 5 6 0 9 7 6 8 8 5 8 7 9 3 10 14 12 12 16 14 14 17 20 14 10
25 23 26 22 21 16 12 16 18 17 17 16 18 17 15 16 16 4 3 4 8 5 2 7 4 9 5 3 6 12 12 5 6 8 9 8 5 4 14 12 11 12 13 14 16 13 11
30 28 28 26 23 21 20 20 19 19 17 16 15 16 16 15 4 5 2 1 2 4 3 5 7 3 6 4 0 11 11 3 4 6 7 8 10 13 10 13 8 10 9 11 12 8 3
27 27 27 26 26 25 22 21 22 20 19 17 15 13 11 3 2 2 6 1 3 1 4 2 4 2 5 2 12 4 4 3 5 4 2 4 4 4 4 5 4 7 9 12 14 6 3
24 26 24 25 26 27 28 26 24 21 17 14 11 8 6 3 2 1 6 0 1 1 5 4 4 5 6 3 4 4 2 3 0 3 6 9 2 2 3 8 8 11 10 14 12 4 3
24 28 27 26 27 29 29 28 28 25 21 15 8 4 3 2 2 6 4 2 2 3 2 3 5 9 7 5 5 6 5 4 3 3 3 1 1 3 4 5 2 5 3 3 2 3 1
26 27 26 26 29 29 30 31 32 31 24 15 8 7 2 3 7 4 2 2 5 5 7 7 6 8 3 7 4 7 4 2 4 3 2 3 1 2 5 5 1 3 2 3 4 2 2
25 26 25 27 29 30 31 33 33 32 23 20 13 3 3 5 1 2 3 4 4 5 3 5 7 2 2 4 1 3 3 3 4 7 4 2 3 4 10 5 3 1 2 4 3 3 0
24 24 25 26 28 31 33 33 33 31 22 8 3 5 5 11 2 2 4 5 5 7 3 3 2 5 4 2 2 2 2 4 3 11 7 5 2 5 5 4 6 6 4 2 1 4 3
23 22 24 26 27 29 33 34 33 31 27 15 3 4 3 14 4 4 4 3 3 6 6 5 6 2 6 5 4 3 3 1 5 2 9 4 2 5 1 1 3 3 4 3 2 4 1
20 20 22 25 25 27 31 33 30 31 25 9 3 4 3 5 4 1 3 4 7 6 5 4 2 6 3 3 2 3 3 2 7 3 2 4 2 2 2 4 5 4 6 1 3 6 3
19 19 20 23 24 25 28 30 29 28 23 2 3 1 2 1 3 3 3 4 5 6 5 7 6 4 3 3 4 4 4 3 5 2 1 4 3 2 7 5 5 4 7 4 2 3 6
17 18 19 21 22 23 25 28 26 29 26 3 2 3 3 1 1 2 2 5 5 4 5 3 4 3 3 6 6 2 2 2 4 1 2 1 4 2 4 4 4 6 11 13 5 5 3
16 17 19 20 21 23 23 25 25 25 28 3 3 1 0 2 5 5 3 3 5 6 3 4 6 8 4 6 3 4 2 2 4 8 4 4 4 4 4 4 4 5 7 13 8 5 4
15 16 17 20 20 22 22 22 22 22 20 4 2 2 2 1 4 5 5 5 6 5 4 6 6 7 9 6 4 4 4 5 2 6 4 4 0 3 6 7 7 5 12 10 10 9 7
14 15 16 20 22 22 21 19 18 17 10 3 2 1 1 2 4 2 3 3 4 6 4 5 4 4 8 6 6 6 4 3 3 3 4 2 3 2 2 4 5 5 6 6 3 6 3
13 14 16 18 22 22 22 20 14 10 6 1 1 1 2 2 1 1 2 4 4 6 3 4 7 3 3 7 5 1 5 5 7 7 4 3 2 2 2 3 4 5 2 2 5 6 6
12 14 14 18 22 25 25 21 10 2 3 2 1 2 2 2 2 2 1 3 7 2 3 3 4 2 6 4 3 2 3 4 3 3 6 3 2 2 3 2 2 3 2 1 2 2 3
10 11 14 18 21 25 26 15 0 8 6 3 2 0 2 1 2 4 3 2 1 3 5 3 4 5 4 2 3 2 1 2 3 5 4 4 4 3 1 3 3 3 0 3 2 3 4
8 11 12 16 19 23 19 10 10 9 5 3 2 1 2 2 3 3 2 1 3 2 2 4 5 6 4 3 3 1 2 1 2 3 2 3 2 2 1 1 4 2 3 1 3 4 2
6 8 9 13 16 15 13 10 11 8 8 4 2 2 3 1 3 1 1 1 4 2 1 3 3 3 3 3 1 2 1 3 2 3 2 3 2 3 1 2 4 5 3 4 4 2 4
6 7 7 9 12 11 9 8 9 9 8 2 1 4 3 2 3 2 2 3 3 2 1 3 2 1 1 2 0 1 2 1 2 3 2 3 5 3 6 4 4 4 3 3 4 4 3
Wind_Direction
335 332 329 327 324 319 316 312 318 321 321 322 325 328 331 331 331 335 331 327 320 322 316 207 161 163 139 202 234 165 147 153 144 181 215 182 180 193 218 249 280 256 257 256 264 270 270
329 326 319 316 313 309 313 314 317 316 316 319 324 324 329 329 331 332 328 324 315 311 287 222 164 169 168 217 193 147 134 126 158 176 204 232 213 233 284 251 256 285 297 289 285 274 274
321 315 312 308 307 306 301 303 304 308 312 318 322 334 332 327 332 335 327 327 321 301 243 178 156 178 195 233 139 146 162 149 175 171 194 224 227 140 350 322 289 279 295 294 270 263 260
316 311 305 300 294 291 294 295 304 313 315 317 325 329 332 332 329 334 331 329 327 246 180 150 165 182 240 220 164 136 136 126 104 54 53 354 87 301 262 288 320 297 294 301 217 213 236
320 315 308 295 282 282 288 300 310 315 320 320 326 327 334 334 334 334 335 337 327 139 131 140 132 188 230 139 158 173 146 168 172 151 206 202 75 217 234 227 283 229 268 252 298 308 226
326 322 317 314 323 312 283 342 342 342 335 323 327 329 333 336 341 338 335 337 336 118 120 152 150 205 179 174 144 130 147 161 112 136 138 165 183 228 226 214 236 228 240 236 275 282 315
326 325 344 1 360 59 47 9 341 348 342 333 328 331 330 335 342 337 334 344 355 128 193 218 153 279 125 95 68 93 98 104 115 172 192 209 171 215 215 221 241 276 277 277 282 283 286
44 31 352 11 25 17 15 350 340 327 331 336 328 330 329 337 339 327 88 38 347 264 347 279 188 34 120 138 119 144 143 145 182 205 209 144 237 233 229 231 239 267 274 280 279 270 245
9 3 8 1 0 15 343 349 339 333 336 336 325 329 341 346 326 346 123 116 257 213 221 195 210 154 143 132 139 169 167 191 203 221 205 218 235 233 215 239 254 264 262 271 259 293 269
3 358 358 4 8 1 356 344 343 341 336 335 331 342 347 343 33 325 93 259 11 192 150 105 157 188 126 138 237 148 188 224 212 233 230 245 249 252 244 255 236 272 252 286 304 276 273
6 13 13 4 358 354 351 348 347 343 343 342 343 337 330 20 234 6 323 12 91 258 109 117 105 114 131 170 139 163 183 253 241 233 192 238 273 334 300 229 301 254 330 315 293 256 292
3 7 2 359 4 2 356 351 347 344 342 338 336 336 340 343 1 124 4 114 154 359 78 119 129 164 137 218 121 127 123 13 255 304 254 254 284 269 261 301 268 278 297 290 270 236 249
5 5 4 5 2 358 357 356 350 347 336 321 315 331 310 182 249 348 10 11 65 37 193 143 143 149 151 164 135 168 184 182 242 256 253 247 203 281 243 281 210 209 283 287 291 191 309
5 6 4 4 1 359 357 356 356 356 8 32 69 134 125 190 245 320 25 46 41 29 66 136 133 123 176 158 223 193 164 189 202 232 313 298 33 233 180 241 294 262 147 294 302 356 324
5 6 2 3 1 359 359 360 3 9 32 57 77 50 28 337 47 54 32 39 27 32 324 106 118 86 89 199 187 114 156 210 216 194 218 335 1 265 222 241 199 211 243 225 263 254 44
3 6 1 2 4 359 -0 4 5 11 17 45 353 66 26 335 28 10 60 40 46 33 53 272 133 229 134 106 71 145 231 157 221 203 203 349 319 281 280 234 237 203 305 358 263 341 39
1 6 0 1 3 4 1 4 6 10 3 355 32 76 281 337 352 24 42 44 2 324 346 39 15 126 111 164 217 210 131 28 349 271 176 185 247 287 312 314 283 334 291 241 238 177 121
358 2 2 1 2 5 6 3 8 7 5 31 27 55 300 341 29 351 29 347 353 316 339 4 286 46 54 110 43 94 96 6 340 340 329 196 248 284 276 262 255 274 282 245 100 325 68
359 356 3 0 0 3 5 6 2 5 8 326 64 74 287 6 41 0 51 21 15 347 330 350 9 4 9 41 79 57 71 294 334 25 19 338 3 5 338 342 354 341 317 302 121 50 4
357 355 357 359 359 360 3 3 4 358 358 67 77 51 336 317 330 325 56 13 345 303 283 287 290 302 21 46 47 76 68 273 286 260 210 317 39 104 155 226 255 328 342 358 75 79 96
352 354 352 356 356 357 359 3 2 2 352 69 43 64 131 17 352 26 40 341 346 353 298 306 12 42 48 34 41 30 340 334 316 349 12 95 51 37 17 15 1 6 360 8 54 134 92
344 351 352 348 353 353 353 357 4 2 1 67 57 25 344 35 335 5 18 340 343 359 344 359 34 25 58 67 45 38 345 19 46 329 24 27 61 28 9 11 50 30 9 19 26 42 73
336 344 348 347 346 347 345 348 356 5 11 82 351 330 350 321 323 47 351 314 301 346 17 48 335 70 31 342 314 289 91 50 35 44 4 72 117 62 321 336 354 18 342 2 16 35 132
332 340 344 346 342 339 336 333 335 360 36 90 147 319 38 3 25 74 319 318 321 347 341 334 11 70 288 307 284 155 69 77 54 8 43 63 81 91 232 8 36 248 301 339 72 29 59
327 333 343 344 343 335 330 321 306 9 52 52 69 48 7 107 356 293 252 278 308 316 24 12 332 263 306 321 24 10 338 348 13 18 1 32 88 51 98 101 255 290 283 14 36 315 5
318 328 340 346 350 341 339 337 191 122 144 132 64 25 77 117 296 300 309 329 351 14 357 334 285 291 10 36 33 41 357 318 316 339 311 6 77 110 96 110 219 250 58 45 25 321 324
312 321 342 351 354 354 11 45 91 104 137 120 136 125 93 80 285 14 17 286 343 37 270 314 330 346 26 25 45 89 280 250 302 315 325 345 6 131 211 166 285 238 131 70 106 231 130
291 308 344 353 355 17 36 52 74 80 23 17 280 143 120 98 281 338 328 307 328 65 163 294 10 347 4 32 84 274 151 262 352 249 204 186 156 218 140 98 263 180 137 173 204 125 124
258 293 332 356 354 27 50 38 20 3 4 150 33 309 111 127 221 251 265 192 178 175 153 300 197 323 279 63 283 332 311 337 192 281 335 278 185 200 173 216 218 180 171 161 159 155 146